| time (UTC) | temp F | wind direction | speed MPH | gust MPH | rain 1hr in | rain 24hr in | rain mn in | humidity % | barometer mb |
| 20260504050508 | 53 | 267 | 0.0 | 2.0 | 0.00 | 0.00 | 0.00 | 48 | 1006.1 |
| 20260504045505 | 54 | 267 | 0.0 | 2.0 | 0.00 | 0.00 | 0.00 | 47 | 1006.2 |
| 20260504045005 | 54 | 267 | 0.0 | 2.0 | 0.00 | 0.00 | 0.00 | 47 | 1006.3 |
| 20260504044522 | 54 | 267 | 0.0 | 1.0 | 0.00 | 0.00 | 0.00 | 46 | 1006.3 |
| 20260504044007 | 54 | 267 | 0.0 | 0.0 | 0.00 | 0.00 | 0.00 | 46 | 1006.4 |
| 20260504043507 | 54 | 267 | 0.0 | 0.0 | 0.00 | 0.00 | 0.00 | 46 | 1006.4 |
| 20260504043023 | 54 | 267 | 0.0 | 0.0 | 0.00 | 0.00 | 0.00 | 46 | 1006.5 |
| 20260504042509 | 54 | 267 | 0.0 | 0.0 | 0.00 | 0.00 | 0.00 | 46 | 1006.6 |
| 20260504042009 | 54 | 267 | 0.0 | 0.0 | 0.00 | 0.00 | 0.00 | 46 | 1006.6 |
| 20260504041527 | 55 | 267 | 0.0 | 0.0 | 0.00 | 0.00 | 0.00 | 46 | 1006.7 |
| 20260504041009 | 55 | 267 | 0.0 | 1.0 | 0.00 | 0.00 | 0.00 | 46 | 1006.7 |
| 20260504040509 | 55 | 360 | 0.0 | 1.0 | 0.00 | 0.00 | 0.00 | 45 | 1006.7 |
| 20260504040031 | 56 | 360 | 0.0 | 2.0 | 0.00 | 0.00 | 0.00 | 45 | 1006.7 |
| 20260504035513 | 56 | 265 | 0.0 | 2.0 | 0.00 | 0.00 | 0.00 | 44 | 1006.8 |
| 20260504035010 | 57 | 360 | 0.0 | 2.0 | 0.00 | 0.00 | 0.00 | 43 | 1006.9 |
| 20260504034529 | 57 | 325 | 0.0 | 2.0 | 0.00 | 0.00 | 0.00 | 42 | 1007.0 |
| 20260504034007 | 57 | 311 | 0.0 | 2.0 | 0.00 | 0.00 | 0.00 | 42 | 1007.0 |
| 20260504033506 | 57 | 360 | 0.0 | 2.0 | 0.00 | 0.00 | 0.00 | 42 | 1007.0 |
| 20260504033036 | 58 | 360 | 0.0 | 2.0 | 0.00 | 0.00 | 0.00 | 42 | 1007.1 |
| 20260504032509 | 58 | 360 | 0.0 | 2.0 | 0.00 | 0.00 | 0.00 | 42 | 1007.2 |
| 20260504032012 | 58 | 360 | 0.0 | 2.0 | 0.00 | 0.00 | 0.00 | 42 | 1007.2 |
| 20260504031529 | 58 | 360 | 0.0 | 2.0 | 0.00 | 0.00 | 0.00 | 42 | 1007.2 |
| 20260504031007 | 58 | 360 | 1.0 | 2.0 | 0.00 | 0.00 | 0.00 | 42 | 1007.2 |
| 20260504030510 | 58 | 360 | 0.0 | 2.0 | 0.00 | 0.00 | 0.00 | 41 | 1007.2 |
| 20260504030025 | 59 | 360 | 1.0 | 3.0 | 0.00 | 0.00 | 0.00 | 41 | 1007.2 |
| 20260504025507 | 59 | 360 | 1.0 | 3.0 | 0.00 | 0.00 | 0.00 | 41 | 1007.2 |
| 20260504025010 | 59 | 360 | 1.0 | 3.0 | 0.00 | 0.00 | 0.00 | 41 | 1007.1 |
| 20260504024541 | 59 | 360 | 1.0 | 3.0 | 0.00 | 0.00 | 0.00 | 41 | 1007.2 |
| 20260504024009 | 59 | 360 | 1.0 | 3.0 | 0.00 | 0.00 | 0.00 | 41 | 1007.1 |
| 20260504023510 | 59 | 313 | 0.0 | 3.0 | 0.00 | 0.00 | 0.00 | 41 | 1007.0 |
| 20260504023018 | 60 | 298 | 2.0 | 3.0 | 0.00 | 0.00 | 0.00 | 40 | 1007.0 |
| 20260504022507 | 60 | 306 | 1.0 | 3.0 | 0.00 | 0.00 | 0.00 | 40 | 1007.0 |
| 20260504022014 | 60 | 304 | 1.0 | 3.0 | 0.00 | 0.00 | 0.00 | 40 | 1007.0 |
| 20260504021521 | 60 | 294 | 1.0 | 3.0 | 0.00 | 0.00 | 0.00 | 39 | 1007.0 |
| 20260504021008 | 60 | 288 | 1.0 | 4.0 | 0.00 | 0.00 | 0.00 | 39 | 1007.0 |
| 20260504020506 | 61 | 312 | 2.0 | 4.0 | 0.00 | 0.00 | 0.00 | 39 | 1006.9 |
| 20260504020026 | 61 | 300 | 1.0 | 3.0 | 0.00 | 0.00 | 0.00 | 38 | 1006.8 |
| 20260504015510 | 61 | 308 | 2.0 | 3.0 | 0.00 | 0.00 | 0.00 | 38 | 1006.8 |
| 20260504015009 | 61 | 304 | 2.0 | 3.0 | 0.00 | 0.00 | 0.00 | 38 | 1006.8 |
| 20260504014525 | 62 | 287 | 2.0 | 4.0 | 0.00 | 0.00 | 0.00 | 38 | 1006.8 |
| 20260504014014 | 63 | 279 | 2.0 | 4.0 | 0.00 | 0.00 | 0.00 | 37 | 1006.8 |
| 20260504013510 | 63 | 292 | 2.0 | 4.0 | 0.00 | 0.00 | 0.00 | 37 | 1006.8 |
| 20260504013030 | 64 | 286 | 3.0 | 4.0 | 0.00 | 0.00 | 0.00 | 35 | 1006.7 |
| 20260504012510 | 64 | 281 | 3.0 | 5.0 | 0.00 | 0.00 | 0.00 | 35 | 1006.6 |
| 20260504012006 | 65 | 290 | 3.0 | 6.0 | 0.00 | 0.00 | 0.00 | 35 | 1006.6 |
| 20260504011517 | 65 | 284 | 3.0 | 6.0 | 0.00 | 0.00 | 0.00 | 35 | 1006.7 |
| 20260504011006 | 66 | 286 | 3.0 | 6.0 | 0.00 | 0.00 | 0.00 | 34 | 1006.6 |
| 20260504010510 | 67 | 276 | 3.0 | 6.0 | 0.00 | 0.00 | 0.00 | 33 | 1006.5 |
| 20260504010007 | 68 | 286 | 3.0 | 6.0 | 0.00 | 0.00 | 0.00 | 33 | 1006.4 |
| 20260504005504 | 69 | 273 | 2.0 | 6.0 | 0.00 | 0.00 | 0.00 | 31 | 1006.5 |
| 20260504005003 | 70 | 284 | 3.0 | 6.0 | 0.00 | 0.00 | 0.00 | 30 | 1006.5 |
| 20260504004518 | 70 | 300 | 3.0 | 6.0 | 0.00 | 0.00 | 0.00 | 29 | 1006.5 |
| 20260504004007 | 71 | 296 | 3.0 | 6.0 | 0.00 | 0.00 | 0.00 | 29 | 1006.4 |
| 20260504003507 | 71 | 277 | 2.0 | 6.0 | 0.00 | 0.00 | 0.00 | 28 | 1006.4 |
| 20260504003016 | 72 | 292 | 2.0 | 7.0 | 0.00 | 0.00 | 0.00 | 28 | 1006.4 |
| 20260504002506 | 72 | 268 | 3.0 | 7.0 | 0.00 | 0.00 | 0.00 | 27 | 1006.4 |
| 20260504002006 | 73 | 315 | 3.0 | 9.0 | 0.00 | 0.00 | 0.00 | 27 | 1006.4 |
| 20260504001522 | 73 | 287 | 2.0 | 13.0 | 0.00 | 0.00 | 0.00 | 26 | 1006.2 |
| 20260504001010 | 73 | 291 | 5.0 | 15.0 | 0.00 | 0.00 | 0.00 | 25 | 1006.2 |
| 20260504000507 | 73 | 341 | 8.0 | 15.0 | 0.00 | 0.00 | 0.00 | 25 | 1006.2 |
| 20260504000021 | 73 | 261 | 8.0 | 13.0 | 0.00 | 0.00 | 0.00 | 25 | 1006.3 |
| 20260503235506 | 73 | 276 | 8.0 | 13.0 | 0.00 | 0.00 | 0.00 | 24 | 1006.4 |
| 20260503235003 | 74 | 314 | 5.0 | 13.0 | 0.00 | 0.00 | 0.00 | 25 | 1006.4 |
| 20260503234511 | 74 | 279 | 6.0 | 15.0 | 0.00 | 0.00 | 0.00 | 25 | 1006.3 |
| 20260503234003 | 74 | 273 | 9.0 | 13.0 | 0.00 | 0.00 | 0.00 | 24 | 1006.2 |
| 20260503233502 | 75 | 281 | 5.0 | 11.0 | 0.00 | 0.00 | 0.00 | 25 | 1006.2 |
| 20260503233011 | 75 | 266 | 4.0 | 9.0 | 0.00 | 0.00 | 0.00 | 25 | 1006.2 |
| 20260503232506 | 75 | 323 | 4.0 | 9.0 | 0.00 | 0.00 | 0.00 | 24 | 1006.1 |
| 20260503232006 | 75 | 236 | 3.0 | 12.0 | 0.00 | 0.00 | 0.00 | 24 | 1006.2 |
| 20260503231516 | 75 | 298 | 5.0 | 16.0 | 0.00 | 0.00 | 0.00 | 24 | 1006.1 |
| 20260503231010 | 75 | 302 | 10.0 | 16.0 | 0.00 | 0.00 | 0.00 | 23 | 1006.2 |
| 20260503230507 | 76 | 273 | 4.0 | 13.0 | 0.00 | 0.00 | 0.00 | 24 | 1006.1 |
| 20260503230022 | 76 | 341 | 2.0 | 14.0 | 0.00 | 0.00 | 0.00 | 23 | 1006.1 |
| 20260503225506 | 76 | 305 | 4.0 | 14.0 | 0.00 | 0.00 | 0.00 | 23 | 1006.1 |
| 20260503225008 | 76 | 300 | 9.0 | 14.0 | 0.00 | 0.00 | 0.00 | 23 | 1006.1 |
| 20260503224524 | 76 | 270 | 6.0 | 14.0 | 0.00 | 0.00 | 0.00 | 22 | 1006.1 |
| 20260503224005 | 76 | 337 | 2.0 | 12.0 | 0.00 | 0.00 | 0.00 | 23 | 1006.1 |
| 20260503223503 | 76 | 325 | 5.0 | 12.0 | 0.00 | 0.00 | 0.00 | 24 | 1006.1 |
| 20260503223010 | 77 | 264 | 3.0 | 13.0 | 0.00 | 0.00 | 0.00 | 23 | 1006.0 |
| 20260503222503 | 77 | 5 | 5.0 | 13.0 | 0.00 | 0.00 | 0.00 | 25 | 1006.0 |
| 20260503222007 | 77 | 267 | 5.0 | 13.0 | 0.00 | 0.00 | 0.00 | 23 | 1006.0 |
| 20260503221516 | 77 | 245 | 3.0 | 9.0 | 0.00 | 0.00 | 0.00 | 24 | 1005.9 |
| 20260503221006 | 76 | 279 | 3.0 | 13.0 | 0.00 | 0.00 | 0.00 | 23 | 1005.9 |
| 20260503220508 | 76 | 277 | 5.0 | 13.0 | 0.00 | 0.00 | 0.00 | 23 | 1006.0 |
| 20260503220022 | 77 | 352 | 4.0 | 10.0 | 0.00 | 0.00 | 0.00 | 24 | 1005.9 |
| 20260503215509 | 77 | 311 | 4.0 | 10.0 | 0.00 | 0.00 | 0.00 | 25 | 1006.0 |
| 20260503215006 | 76 | 306 | 3.0 | 11.0 | 0.00 | 0.00 | 0.00 | 24 | 1006.0 |
| 20260503214525 | 76 | 302 | 3.0 | 19.0 | 0.00 | 0.00 | 0.00 | 24 | 1005.9 |
| 20260503214009 | 76 | 287 | 8.0 | 19.0 | 0.00 | 0.00 | 0.00 | 23 | 1005.9 |
| 20260503213507 | 76 | 286 | 12.0 | 19.0 | 0.00 | 0.00 | 0.00 | 24 | 1005.9 |
| 20260503213016 | 76 | 279 | 9.0 | 16.0 | 0.00 | 0.00 | 0.00 | 24 | 1006.0 |
| 20260503212504 | 76 | 333 | 7.0 | 16.0 | 0.00 | 0.00 | 0.00 | 25 | 1006.1 |
| 20260503212007 | 76 | 279 | 8.0 | 17.0 | 0.00 | 0.00 | 0.00 | 24 | 1006.1 |
| 20260503211515 | 76 | 273 | 5.0 | 17.0 | 0.00 | 0.00 | 0.00 | 27 | 1006.1 |
| 20260503211006 | 77 | 239 | 4.0 | 14.0 | 0.00 | 0.00 | 0.00 | 27 | 1006.1 |
| 20260503210506 | 77 | 296 | 5.0 | 13.0 | 0.00 | 0.00 | 0.00 | 26 | 1006.1 |
| 20260503210018 | 76 | 321 | 4.0 | 13.0 | 0.00 | 0.00 | 0.00 | 26 | 1006.1 |
| 20260503205506 | 76 | 295 | 4.0 | 17.0 | 0.00 | 0.00 | 0.00 | 27 | 1006.1 |
| 20260503205006 | 77 | 279 | 6.0 | 17.0 | 0.00 | 0.00 | 0.00 | 26 | 1006.2 |
| 20260503204521 | 76 | 296 | 9.0 | 16.0 | 0.00 | 0.00 | 0.00 | 26 | 1006.1 |
| 20260503204009 | 77 | 264 | 5.0 | 13.0 | 0.00 | 0.00 | 0.00 | 26 | 1006.1 |
| 20260503203508 | 77 | 305 | 5.0 | 11.0 | 0.00 | 0.00 | 0.00 | 26 | 1006.3 |
| 20260503203023 | 77 | 323 | 5.0 | 16.0 | 0.00 | 0.00 | 0.00 | 26 | 1006.3 |
| 20260503202507 | 77 | 214 | 5.0 | 16.0 | 0.00 | 0.00 | 0.00 | 28 | 1006.4 |
| 20260503202012 | 77 | 321 | 4.0 | 14.0 | 0.00 | 0.00 | 0.00 | 28 | 1006.4 |
| 20260503201512 | 77 | 313 | 5.0 | 14.0 | 0.00 | 0.00 | 0.00 | 28 | 1006.4 |
| 20260503201004 | 77 | 350 | 5.0 | 16.0 | 0.00 | 0.00 | 0.00 | 28 | 1006.5 |
| 20260503200507 | 76 | 342 | 8.0 | 19.0 | 0.00 | 0.00 | 0.00 | 28 | 1006.5 |
| 20260503200019 | 76 | 333 | 8.0 | 19.0 | 0.00 | 0.00 | 0.00 | 27 | 1006.5 |
| 20260503195507 | 76 | 301 | 6.0 | 18.0 | 0.00 | 0.00 | 0.00 | 27 | 1006.5 |
| 20260503195007 | 76 | 275 | 5.0 | 18.0 | 0.00 | 0.00 | 0.00 | 28 | 1006.4 |
| 20260503194523 | 76 | 256 | 6.0 | 17.0 | 0.00 | 0.00 | 0.00 | 28 | 1006.4 |
| 20260503194009 | 76 | 298 | 9.0 | 17.0 | 0.00 | 0.00 | 0.00 | 27 | 1006.5 |
| 20260503193510 | 77 | 346 | 7.0 | 11.0 | 0.00 | 0.00 | 0.00 | 28 | 1006.4 |
| 20260503193035 | 77 | 331 | 5.0 | 13.0 | 0.00 | 0.00 | 0.00 | 28 | 1006.5 |
| 20260503192509 | 76 | 321 | 6.0 | 13.0 | 0.00 | 0.00 | 0.00 | 29 | 1006.4 |
| 20260503192008 | 76 | 313 | 6.0 | 16.0 | 0.00 | 0.00 | 0.00 | 29 | 1006.4 |
| 20260503191526 | 76 | 279 | 8.0 | 21.0 | 0.00 | 0.00 | 0.00 | 30 | 1006.4 |
| 20260503191009 | 76 | 287 | 13.0 | 23.0 | 0.00 | 0.00 | 0.00 | 27 | 1006.4 |
| 20260503190506 | 76 | 298 | 10.0 | 23.0 | 0.00 | 0.00 | 0.00 | 28 | 1006.4 |
| 20260503190025 | 76 | 331 | 5.0 | 14.0 | 0.00 | 0.00 | 0.00 | 28 | 1006.4 |
| 20260503185507 | 75 | 236 | 7.0 | 12.0 | 0.00 | 0.00 | 0.00 | 29 | 1006.4 |
| 20260503185007 | 75 | 5 | 6.0 | 19.0 | 0.00 | 0.00 | 0.00 | 29 | 1006.6 |
| 20260503184521 | 75 | 281 | 8.0 | 19.0 | 0.00 | 0.00 | 0.00 | 30 | 1006.5 |
| 20260503184008 | 75 | 251 | 7.0 | 15.0 | 0.00 | 0.00 | 0.00 | 29 | 1006.6 |
| 20260503183510 | 75 | 288 | 8.0 | 17.0 | 0.00 | 0.00 | 0.00 | 29 | 1006.5 |
| 20260503183023 | 75 | 244 | 5.0 | 17.0 | 0.00 | 0.00 | 0.00 | 30 | 1006.6 |
| 20260503182514 | 75 | 291 | 4.0 | 16.0 | 0.00 | 0.00 | 0.00 | 32 | 1006.8 |
| 20260503182016 | 74 | 271 | 9.0 | 17.0 | 0.00 | 0.00 | 0.00 | 32 | 1006.8 |
| 20260503181526 | 74 | 299 | 9.0 | 17.0 | 0.00 | 0.00 | 0.00 | 33 | 1006.8 |
| 20260503181014 | 74 | 276 | 10.0 | 17.0 | 0.00 | 0.00 | 0.00 | 33 | 1006.8 |
| 20260503180511 | 73 | 271 | 9.0 | 17.0 | 0.00 | 0.00 | 0.00 | 32 | 1006.8 |
| 20260503180026 | 73 | 274 | 8.0 | 16.0 | 0.00 | 0.00 | 0.00 | 35 | 1006.9 |
| 20260503175504 | 73 | 277 | 9.0 | 15.0 | 0.00 | 0.00 | 0.00 | 34 | 1007.0 |
| 20260503175006 | 72 | 264 | 9.0 | 16.0 | 0.00 | 0.00 | 0.00 | 35 | 1007.0 |
| 20260503174524 | 72 | 246 | 5.0 | 16.0 | 0.00 | 0.00 | 0.00 | 36 | 1007.1 |
| 20260503174006 | 72 | 271 | 9.0 | 14.0 | 0.00 | 0.00 | 0.00 | 36 | 1007.1 |
| 20260503173508 | 71 | 225 | 8.0 | 14.0 | 0.00 | 0.00 | 0.00 | 35 | 1007.2 |
| 20260503173022 | 72 | 327 | 5.0 | 14.0 | 0.00 | 0.00 | 0.00 | 38 | 1007.2 |
| 20260503172506 | 71 | 320 | 4.0 | 14.0 | 0.00 | 0.00 | 0.00 | 37 | 1007.3 |
| 20260503172010 | 71 | 275 | 4.0 | 16.0 | 0.00 | 0.00 | 0.00 | 37 | 1007.3 |
| 20260503171526 | 70 | 264 | 8.0 | 16.0 | 0.00 | 0.00 | 0.00 | 36 | 1007.4 |
| 20260503171012 | 70 | 247 | 4.0 | 11.0 | 0.00 | 0.00 | 0.00 | 38 | 1007.4 |
| 20260503170510 | 69 | 194 | 6.0 | 14.0 | 0.00 | 0.00 | 0.00 | 38 | 1007.5 |
| 20260503151009 | 62 | 290 | 6.0 | 13.0 | 0.00 | 0.00 | 0.00 | 44 | 1008.4 |
| 20260503150510 | 62 | 277 | 4.0 | 15.0 | 0.00 | 0.00 | 0.00 | 44 | 1008.5 |
| 20260503131004 | 54 | 360 | 11.0 | 16.0 | 0.00 | 0.00 | 0.00 | 51 | 1009.8 |
| 20260503130502 | 54 | 360 | 10.0 | 16.0 | 0.00 | 0.00 | 0.00 | 51 | 1009.9 |
| 20260503110512 | 52 | 360 | 4.0 | 9.0 | 0.00 | 0.00 | 0.00 | 51 | 1010.8 |
| 20260503090506 | 50 | 360 | 1.0 | 3.0 | 0.00 | 0.00 | 0.00 | 55 | 1012.3 |
| 20260503081509 | 51 | 360 | 3.0 | 8.0 | 0.00 | 0.00 | 0.00 | 53 | 1013.0 |
| 20260503081002 | 52 | 360 | 4.0 | 8.0 | 0.00 | 0.00 | 0.00 | 50 | 1012.8 |
| 20260503080506 | 52 | 360 | 4.0 | 6.0 | 0.00 | 0.00 | 0.00 | 50 | 1013.0 |
| 20260503072507 | 52 | 360 | 5.0 | 9.0 | 0.00 | 0.00 | 0.00 | 50 | 1013.4 |
| 20260503072009 | 52 | 360 | 1.0 | 5.0 | 0.00 | 0.00 | 0.00 | 51 | 1013.5 |
| 20260503071511 | 52 | 360 | 2.0 | 6.0 | 0.00 | 0.00 | 0.00 | 50 | 1013.3 |
| 20260503071002 | 52 | 360 | 3.0 | 8.0 | 0.00 | 0.00 | 0.00 | 50 | 1013.4 |
| 20260503070502 | 52 | 360 | 3.0 | 9.0 | 0.00 | 0.00 | 0.00 | 50 | 1013.4 |
| 20260503055005 | 51 | 360 | 3.0 | 8.0 | 0.00 | 0.00 | 0.00 | 49 | 1013.6 |
| 20260503054526 | 51 | 360 | 3.0 | 8.0 | 0.00 | 0.00 | 0.00 | 49 | 1013.7 |
| 20260503054008 | 51 | 360 | 4.0 | 9.0 | 0.00 | 0.00 | 0.00 | 49 | 1013.7 |
| 20260503053505 | 51 | 360 | 3.0 | 9.0 | 0.00 | 0.00 | 0.00 | 49 | 1013.8 |
| 20260503053016 | 51 | 360 | 4.0 | 9.0 | 0.00 | 0.00 | 0.00 | 49 | 1013.8 |
| 20260503052506 | 51 | 360 | 3.0 | 8.0 | 0.00 | 0.00 | 0.00 | 49 | 1013.9 |
| 20260503052009 | 51 | 360 | 2.0 | 8.0 | 0.00 | 0.00 | 0.00 | 49 | 1014.0 |
| 20260503051521 | 51 | 360 | 3.0 | 8.0 | 0.00 | 0.00 | 0.00 | 48 | 1013.9 |
| 20260503051006 | 52 | 360 | 3.0 | 8.0 | 0.00 | 0.00 | 0.00 | 47 | 1014.0 |